EST,Max TemperatureF,Mean TemperatureF,Min TemperatureF,Max Dew PointF,MeanDew PointF,Min DewpointF,Max Humidity, Mean Humidity, Min Humidity, Max Sea Level PressureIn, Mean Sea Level PressureIn, Min Sea Level PressureIn, Max VisibilityMiles, Mean VisibilityMiles, Min VisibilityMiles, Max Wind SpeedMPH, Mean Wind SpeedMPH, Max Gust SpeedMPH,PrecipitationIn, CloudCover, Events, WindDirDegrees
2012-11-1,48,45,42,45,40,39,92,82,71,29.49,29.47,29.43,10,10,8,15,4,18,0.04,7,Rain,168
2012-11-2,46,44,41,38,34,32,82,70,58,29.68,29.58,29.50,10,10,10,12,3,17,0.02,8,Rain,237
2012-11-3,45,43,40,34,32,30,76,67,58,29.89,29.79,29.67,10,10,10,15,6,22,T,8,Rain,292
2012-11-4,41,38,34,32,28,22,76,66,56,30.04,29.98,29.91,10,10,10,18,8,23,T,8,,314
2012-11-5,38,33,28,24,20,16,69,57,44,30.16,30.09,30.03,10,10,10,17,7,23,0.00,8,,311
2012-11-6,39,31,23,20,17,13,81,60,38,30.24,30.21,30.17,10,10,10,10,2,14,0.00,0,,190
2012-11-7,36,27,18,25,21,16,91,72,52,30.23,30.16,30.05,10,10,10,21,9,25,0.00,0,,347
2012-11-8,39,34,28,27,24,21,78,69,59,30.05,30.01,29.96,10,10,10,21,13,26,0.00,5,,339
2012-11-9,46,36,26,34,27,21,81,60,38,30.13,30.06,29.99,10,10,10,9,4,,0.00,4,,309
2012-11-10,43,36,29,34,28,25,79,67,55,30.43,30.33,30.13,10,10,10,3,5,6,0.00,3,,21
2012-11-11,60,48,36,43,37,29,83,70,57,30.37,30.31,30.26,10,10,10,18,5,23,T,4,Rain,186
2012-11-12,67,53,38,51,44,37,86,66,45,30.27,30.14,29.93,10,10,10,28,13,38,0.00,1,,160
2012-11-13,63,46,29,49,32,22,86,62,38,30.51,30.27,30.01,10,10,6,18,6,29,0.31,5,Rain,256
2012-11-14,41,32,23,25,22,19,88,68,48,30.64,30.58,30.51,10,10,10,10,4,15,0.00,0,,342
2012-11-15,36,29,22,25,22,20,88,76,64,30.53,30.45,30.36,10,10,10,8,3,9,0.00,0,,326
2012-11-16,40,30,20,28,24,17,96,78,59,30.49,30.42,30.37,10,10,10,6,1,8,0.00,2,,244
2012-11-17,38,30,22,27,24,20,92,76,59,30.71,30.65,30.51,10,10,10,10,4,14,0.00,2,,344
2012-11-18,40,30,19,32,25,18,92,81,70,30.74,30.68,30.61,10,10,6,7,1,8,0.00,0,,30
2012-11-19,45,33,21,32,25,19,100,79,58,30.59,30.46,30.28,10,9,6,8,2,10,0.00,1,,143
2012-11-20,42,33,23,33,27,21,92,80,67,30.27,30.22,30.17,10,10,9,7,1,8,0.00,3,,5
2012-11-21,49,37,25,37,30,25,100,81,61,30.25,30.22,30.19,10,8,5,9,2,12,0.00,1,,137
2012-11-22,52,37,22,35,28,22,100,74,48,30.24,30.15,30.02,10,9,5,14,3,18,0.00,0,,162
2012-11-23,55,39,23,44,32,21,92,67,41,30.00,29.74,29.57,10,10,9,22,6,30,0.04,3,Rain,162
2012-11-24,46,38,29,33,22,14,70,59,47,29.70,29.61,29.55,10,10,9,22,10,31,T,7,,272
2012-11-25,33,29,24,19,13,8,69,54,39,29.83,29.77,29.70,10,10,10,21,6,30,T,4,,293
2012-11-26,34,28,22,23,19,14,88,67,45,30.24,30.01,29.82,10,7,1,13,3,15,T,6,Snow,345
2012-11-27,34,30,25,28,23,18,92,80,68,30.30,30.27,30.23,10,10,6,7,1,7,T,7,Snow,283
2012-11-28,38,31,24,28,25,21,92,72,52,30.25,30.15,30.09,10,9,2,13,2,18,T,7,Snow,227
2012-11-29,37,30,22,32,22,13,96,75,54,30.37,30.17,30.04,10,7,1,20,5,25,0.06,7,Snow,323
2012-11-30,22,15,8,10,6,3,80,74,67,30.61,30.56,30.39,10,10,10,20,7,24,0.00,2,,339